FW0743 Weather Reports


time (UTC)temp
C
wind
direction
speed
KPH
gust
KPH
rain 1hr
cm
rain 24hr
cm
rain mn
cm
humidity
%
barometer
mb
20260901060008 17 150 1.6 9.7 0.00 0.03 0.00 96 1016.4
20260901054512 17 134 4.8 12.9 0.00 0.03 0.00 96 1016.5
20260901053010 17 192 1.6 9.7 0.00 0.03 0.00 96 1016.7
20260901051509 17 145 1.6 6.4 0.00 0.03 0.00 95 1016.9
20260901050010 17 130 4.8 12.9 0.00 0.03 0.00 95 1016.7
20260901044514 17 174 3.2 8.0 0.00 0.03 0.00 95 1016.7
20260901043008 17 153 3.2 8.0 0.00 0.03 0.00 94 1017.1
20260901041511 17 163 3.2 8.0 0.00 0.03 0.00 94 1017.1
20260901040012 17 163 1.6 3.2 0.00 0.03 0.00 93 1017.4
20260901034522 17 163 1.6 6.4 0.00 0.03 0.03 93 1017.3
20260901033012 17 155 3.2 8.0 0.00 0.03 0.03 93 1017.2
20260901031507 17 140 3.2 6.4 0.00 0.03 0.03 92 1017.2
20260901030013 17 134 1.6 8.0 0.00 0.03 0.03 92 1017.3
20260901024514 17 180 4.8 11.3 0.00 0.03 0.03 92 1017.2
20260901023019 17 188 3.2 8.0 0.00 0.03 0.03 92 1017.4
20260901021520 17 153 1.6 9.7 0.00 0.03 0.03 92 1017.6
20260901020012 17 163 3.2 8.0 0.00 0.03 0.03 92 1017.6
20260901014516 17 159 4.8 9.7 0.00 0.03 0.03 92 1017.6
20260901013018 17 160 3.2 8.0 0.00 0.03 0.03 92 1017.8
20260901011523 17 180 0.0 6.4 0.00 0.03 0.03 92 1018.0
20260901010018 17 163 1.6 6.4 0.00 0.03 0.03 92 1018.1
20260901004516 17 153 3.2 8.0 0.00 0.03 0.03 91 1017.8
20260901003020 17 159 4.8 11.3 0.00 0.03 0.03 91 1017.6
20260901001519 17 166 3.2 9.7 0.00 0.03 0.03 91 1017.4
20260901000021 17 175 4.8 11.3 0.00 0.03 0.03 91 1017.5
20260831234519 17 160 4.8 9.7 0.00 0.03 0.03 91 1017.4
20260831233017 17 150 4.8 9.7 0.00 0.03 0.03 91 1017.6
20260831231519 17 176 1.6 11.3 0.00 0.03 0.03 91 1017.7
20260831230019 17 175 6.4 12.9 0.00 0.03 0.03 91 1017.7
20260831224512 18 161 1.6 8.0 0.00 0.03 0.03 90 1017.9
20260831223019 18 161 3.2 14.5 0.00 0.03 0.03 90 1018.0
20260831221523 18 159 6.4 17.7 0.00 0.03 0.03 90 1018.0
20260831220025 18 185 4.8 12.9 0.00 0.03 0.03 90 1018.1
20260831214508 18 137 4.8 11.3 0.00 0.03 0.03 90 1018.1
20260831213014 17 143 3.2 11.3 0.00 0.03 0.03 91 1018.2
20260831211520 17 173 3.2 16.1 0.00 0.03 0.03 91 1018.4
20260831210025 17 153 6.4 14.5 0.00 0.03 0.03 91 1018.5
20260831204523 17 149 9.7 16.1 0.00 0.03 0.03 91 1018.6
20260831203013 17 161 8.0 17.7 0.00 0.03 0.03 91 1018.7
20260831201528 17 199 3.2 16.1 0.00 0.03 0.03 90 1018.6
20260831200038 17 136 8.0 19.3 0.00 0.03 0.03 90 1018.7
20260831194531 17 144 8.0 22.5 0.00 0.03 0.03 89 1018.8
20260831193037 17 183 8.0 19.3 0.00 0.03 0.03 90 1018.8
20260831191533 17 136 9.7 20.9 0.00 0.03 0.03 89 1019.0
20260831190029 18 135 12.9 19.3 0.00 0.08 0.03 88 1019.3
20260831184529 18 181 6.4 14.5 0.00 0.08 0.03 87 1019.4
20260831183029 18 187 1.6 9.7 0.00 0.13 0.03 89 1019.4
20260831181528 18 195 3.2 11.3 0.00 0.23 0.03 90 1019.6
20260831180042 18 170 1.6 11.3 0.00 0.30 0.03 90 1019.6
20260831174532 18 172 4.8 14.5 0.00 0.43 0.03 90 1019.9
20260831173027 18 134 6.4 12.9 0.03 0.43 0.03 91 1020.1
20260831171508 18 167 3.2 11.3 0.03 0.43 0.03 92 1020.0
20260831170013 18 132 3.2 8.0 0.03 0.43 0.03 93 1020.3
20260831164535 18 170 6.4 12.9 0.03 0.43 0.03 92 1020.3
20260831163027 18 180 1.6 11.3 0.00 0.41 0.00 92 1020.4
20260831161530 18 178 4.8 14.5 0.00 0.41 0.00 89 1020.6
20260831160013 18 163 3.2 11.3 0.00 0.41 0.00 89 1020.6
20260831154544 18 186 8.0 14.5 0.00 0.41 0.00 89 1020.6
20260831153027 18 153 8.0 12.9 0.00 0.41 0.00 91 1020.4
20260831151527 18 200 3.2 14.5 0.00 0.41 0.00 92 1020.5
20260831150012 18 153 3.2 16.1 0.00 0.41 0.00 92 1020.5
20260831144517 18 146 6.4 17.7 0.00 0.41 0.00 93 1020.4
20260831143022 18 163 6.4 17.7 0.00 0.41 0.00 95 1020.4
20260831141527 17 155 4.8 12.9 0.00 0.41 0.00 96 1020.3
20260831140031 17 106 3.2 14.5 0.00 0.41 0.00 97 1020.3
20260831134512 17 183 8.0 17.7 0.00 0.41 0.00 98 1020.3
20260831133016 16 182 4.8 9.7 0.00 0.41 0.00 98 1020.5
20260831131525 16 165 1.6 9.7 0.00 0.41 0.00 98 1020.5
20260831130030 16 130 4.8 11.3 0.00 0.41 0.00 98 1020.5
20260831124531 16 192 3.2 8.0 0.00 0.41 0.00 98 1020.6
20260831123013 16 159 4.8 9.7 0.00 0.41 0.00 98 1020.3
20260831121521 16 188 3.2 8.0 0.00 0.41 0.00 98 1020.8
20260831120035 15 188 1.6 4.8 0.00 0.41 0.00 98 1020.9
20260831114536 15 241 1.6 4.8 0.00 0.41 0.00 98 1020.9
20260831113035 15 241 1.6 4.8 0.00 0.41 0.00 98 1020.8
20260831111519 15 241 1.6 4.8 0.00 0.41 0.00 98 1020.7
20260831110025 15 241 0.0 3.2 0.00 0.41 0.00 98 1020.7
20260831104546 15 241 0.0 0.0 0.00 0.41 0.00 98 1020.6
20260831103031 15 241 0.0 0.0 0.00 0.41 0.00 98 1020.5
20260831101536 15 241 0.0 0.0 0.00 0.41 0.00 98 1020.3
20260831100018 15 241 0.0 3.2 0.00 0.41 0.00 98 1020.2
20260831094530 15 241 0.0 1.6 0.00 0.41 0.00 98 1020.1
20260831093040 15 241 0.0 0.0 0.00 0.41 0.00 98 1020.2
20260831091530 15 241 0.0 3.2 0.00 0.41 0.00 98 1020.2
20260831090039 15 241 0.0 3.2 0.00 0.41 0.00 98 1020.2
20260831084524 15 241 0.0 1.6 0.00 0.41 0.00 98 1020.3
20260831083031 15 241 0.0 1.6 0.00 0.41 0.00 98 1020.3
20260831081531 15 241 0.0 0.0 0.00 0.41 0.00 98 1020.4
20260831080036 15 241 0.0 1.6 0.00 0.41 0.00 98 1020.4
20260831074533 15 241 0.0 3.2 0.00 0.41 0.00 98 1020.2
20260831073029 15 241 0.0 3.2 0.00 0.41 0.00 98 1020.1
20260831071533 15 241 0.0 0.0 0.00 0.41 0.00 98 1020.4
20260831070038 15 241 0.0 3.2 0.00 0.41 0.00 98 1020.3
20260831064537 15 241 0.0 1.6 0.00 0.41 0.00 98 1020.2
20260831063025 16 241 0.0 1.6 0.00 0.41 0.00 98 1020.2
20260831061529 16 241 0.0 1.6 0.00 0.41 0.00 98 1020.3